Wind_Speed
20 20 19 20 20 19 18 17 16 16 16 15 16 16 16 16 16 16 16 17 18 18 18 18 19 19 19 19 19 19 19 19 19 20 20 20 20 20 20 20 20 21 21 21
21 20 20 20 20 19 18 17 17 17 16 16 16 17 17 17 17 17 17 18 18 18 19 19 19 19 19 19 20 20 20 20 20 20 20 20 20 21 21 21 21 21 22 22
21 21 21 21 20 19 18 17 17 17 17 18 16 17 17 17 17 18 18 19 19 19 19 19 20 20 20 20 20 21 21 20 21 21 22 22 22 22 22 22 22 22 23 23
21 21 22 21 19 19 19 19 18 18 18 17 17 18 17 17 18 18 18 19 19 20 20 20 20 20 20 21 21 21 21 22 22 23 23 23 22 23 23 23 24 24 23 23
22 22 22 22 20 19 19 19 18 18 18 18 17 18 18 17 17 18 18 19 20 20 20 21 22 21 21 22 22 21 22 22 22 23 23 23 23 23 24 24 24 24 24 24
25 24 23 22 21 19 19 21 19 19 19 19 18 18 18 18 18 19 19 20 21 21 21 21 22 21 21 22 22 22 22 23 23 23 24 24 24 24 24 24 25 25 24 24
26 25 24 23 22 20 20 21 21 20 20 20 20 20 20 19 19 20 20 21 21 22 22 22 22 22 23 23 23 23 23 23 24 24 24 25 25 25 24 25 25 25 25 24
27 26 26 25 24 22 22 22 22 21 21 21 22 22 21 21 21 21 22 22 22 23 23 23 23 24 24 24 24 24 25 24 24 25 25 25 25 25 25 25 25 25 25 25
28 28 28 27 26 24 23 22 22 22 22 22 22 22 22 22 22 22 23 24 24 24 24 25 25 25 24 24 25 25 25 25 25 25 25 25 25 26 26 25 25 25 25 25
29 29 29 28 26 25 24 24 23 23 23 23 23 23 24 24 24 24 24 25 25 25 25 24 24 24 25 25 24 25 25 25 25 25 25 25 26 26 26 26 25 26 25 25
30 30 29 29 28 27 26 25 25 25 25 25 24 25 25 25 26 26 26 27 27 26 26 25 26 26 26 26 25 25 24 24 24 24 25 25 26 26 25 25 26 26 25 26
31 30 30 29 29 29 28 27 27 27 26 26 26 26 26 26 27 27 27 28 28 27 27 26 26 27 27 26 25 24 24 24 25 25 25 25 25 25 25 25 26 26 26 26
32 31 30 30 30 30 29 29 28 28 28 27 27 26 27 27 26 26 26 27 28 28 28 27 27 26 26 25 24 25 25 25 25 25 25 26 26 26 26 26 27 26 26 26
31 31 30 30 30 29 29 29 28 29 28 27 27 26 26 26 26 27 27 28 28 28 28 27 26 26 26 26 26 26 26 26 25 26 26 27 27 27 28 27 27 27 26 26
31 31 31 30 30 29 29 29 29 29 29 28 28 27 27 26 27 28 28 28 28 28 28 27 26 27 27 27 26 26 26 26 26 26 27 27 27 28 28 27 27 26 26 26
31 31 30 30 30 30 30 30 30 30 29 29 28 27 27 27 27 28 28 28 28 27 26 26 26 26 26 26 26 26 26 27 27 27 27 27 27 28 28 27 26 26 27 27
31 29 28 29 30 30 30 30 29 29 28 28 27 27 27 28 28 28 28 29 28 27 26 26 25 25 25 26 26 26 27 27 28 28 28 28 28 28 27 27 27 27 27 27
31 29 29 29 28 29 29 29 29 30 29 29 28 28 28 27 27 27 28 28 28 27 27 26 26 26 26 26 26 27 27 27 27 27 27 27 27 27 27 27 27 27 27 26
29 28 28 28 28 29 30 30 30 29 29 29 28 28 28 28 28 27 27 28 27 27 27 27 27 27 27 27 27 27 27 27 27 26 27 27 27 27 26 26 26 27 26 25
27 28 29 29 29 29 29 29 29 28 28 29 29 28 28 28 28 28 27 27 27 28 27 27 26 27 27 27 27 27 27 27 26 26 27 26 26 26 25 26 26 26 25 25
25 26 27 27 27 27 27 27 28 28 28 28 29 28 27 27 27 27 27 27 27 26 26 26 26 26 27 27 27 27 27 26 26 26 27 26 26 25 25 25 25 25 25 25
25 25 26 26 26 26 26 26 27 27 28 28 27 27 27 27 27 27 27 27 26 26 26 26 25 25 26 26 26 26 27 27 26 25 25 25 25 24 24 25 25 25 25 25
23 23 24 24 25 24 24 24 25 25 25 25 25 26 26 26 26 26 26 26 26 26 26 26 26 26 26 26 26 26 26 26 25 24 24 23 23 24 24 25 25 24 25 25
21 22 22 23 23 24 24 24 24 25 25 25 25 25 26 26 25 25 25 25 26 26 26 26 26 26 26 26 25 24 24 24 24 24 23 23 23 24 24 24 24 24 24 24
20 21 22 22 23 23 23 23 24 24 24 24 24 25 25 25 25 25 25 25 25 25 25 26 26 25 25 24 25 24 24 23 23 23 23 23 23 24 24 24 24 24 24 24
19 20 20 21 21 22 22 22 23 23 23 23 24 24 24 24 24 24 25 25 25 24 24 25 25 25 24 24 24 23 23 23 22 23 23 23 23 24 24 24 24 24 24 25
19 20 21 21 21 21 22 22 23 23 23 23 23 23 23 23 23 24 24 24 24 24 24 23 24 24 24 23 23 23 23 24 24 23 23 24 24 24 24 24 24 24 24 24
Wind_Direction
247 251 256 261 263 263 260 260 261 267 273 279 282 285 287 289 293 296 298 298 298 299 299 298 300 301 300 301 303 304 304 304 305 304 305 306 307 307 307 305 302 304 304 302
251 255 258 261 262 261 259 261 265 268 272 274 279 281 283 286 289 293 295 297 298 298 297 297 299 299 299 299 301 302 301 301 303 304 306 306 306 306 308 307 307 307 308 305
253 256 258 259 259 257 258 261 264 268 272 274 275 279 282 285 285 289 292 294 297 296 295 296 298 298 298 299 300 300 300 302 303 304 304 304 303 303 304 306 305 305 305 305
252 255 255 254 254 255 257 259 261 265 270 272 272 276 280 282 283 285 286 290 294 297 296 298 299 299 299 301 302 303 303 304 305 305 304 303 302 300 300 303 305 304 302 304
252 255 257 255 250 253 257 260 262 266 271 274 275 276 277 278 280 282 284 288 293 297 297 297 298 298 299 300 302 304 304 305 306 306 304 302 300 300 300 301 303 303 303 302
251 251 253 256 257 255 258 262 263 266 270 273 274 276 279 279 280 283 285 289 293 295 297 298 298 298 298 300 301 303 304 304 305 304 303 302 301 300 300 300 302 302 301 303
250 252 253 254 257 257 257 261 264 266 268 271 272 271 273 276 279 283 286 289 292 293 295 296 298 298 298 299 300 302 302 304 304 304 302 301 300 300 300 300 301 301 300 301
248 249 251 254 255 256 258 261 266 267 267 271 273 274 273 276 280 284 286 289 291 294 295 296 296 296 297 298 299 300 300 302 304 303 303 302 301 301 301 301 301 301 302 302
247 248 250 253 254 255 257 260 263 267 269 272 274 273 274 275 279 282 285 287 290 292 294 295 295 297 299 300 300 300 300 300 302 302 302 302 302 303 302 302 303 302 302 302
246 247 249 251 253 254 256 258 262 265 267 271 273 275 276 275 277 279 282 286 290 293 295 297 298 298 300 300 300 301 301 301 301 301 301 302 301 300 301 302 303 303 303 304
246 247 247 250 254 256 258 259 261 264 266 268 271 273 276 277 277 278 280 285 289 291 292 294 297 298 299 300 300 300 301 303 302 302 301 302 301 301 302 304 305 305 304 304
246 246 247 249 251 255 258 261 262 264 266 268 270 272 274 276 277 278 282 284 287 288 289 291 295 296 298 298 299 298 298 300 301 301 301 301 301 301 302 303 304 304 305 304
245 246 247 249 252 254 258 262 263 264 267 268 270 272 273 276 278 279 281 283 286 287 290 291 293 295 296 296 295 296 297 298 299 299 300 301 302 303 303 302 302 303 304 305
244 245 246 248 251 254 256 260 262 265 267 269 270 272 273 275 279 281 282 282 284 286 288 290 290 292 293 294 294 294 295 299 300 299 299 300 301 302 302 303 302 302 303 304
244 244 246 248 251 253 256 259 261 263 266 269 270 272 275 276 278 281 282 281 282 284 285 286 288 290 291 291 292 294 297 299 300 300 301 300 300 301 302 302 302 302 302 302
246 247 247 249 251 252 254 257 261 264 267 269 271 272 274 275 277 278 280 281 282 283 284 285 288 291 289 289 291 293 294 296 297 299 299 300 301 301 301 301 301 301 302 302
246 246 248 250 251 253 255 257 260 263 266 268 269 270 272 274 276 278 280 282 282 282 283 283 286 288 288 289 291 292 293 293 295 298 299 299 300 301 301 300 300 300 300 301
246 247 249 251 251 253 255 258 261 264 265 267 268 269 272 275 277 280 281 281 281 282 283 284 286 288 289 290 292 292 293 294 295 297 300 300 300 299 299 299 299 299 299 300
247 247 248 250 253 256 259 261 264 264 265 266 268 270 272 274 277 279 280 280 281 281 283 284 286 289 290 291 292 292 293 294 295 297 300 301 301 300 299 300 300 300 301 301
248 249 249 251 254 257 260 261 263 264 265 266 267 269 271 272 274 276 277 280 281 283 284 284 286 287 288 289 290 292 293 294 294 295 299 301 301 300 300 300 301 300 299 301
249 251 252 253 256 258 261 262 263 264 266 267 266 267 267 269 273 275 278 280 281 283 284 285 286 287 288 289 289 291 292 293 293 295 297 299 299 299 300 301 302 302 302 302
251 253 254 255 257 259 261 262 263 265 266 267 266 265 266 269 272 275 277 279 280 283 284 285 287 288 289 289 289 291 293 293 293 295 296 297 298 299 301 302 302 303 304 304
252 254 254 255 257 259 261 262 263 264 266 266 267 267 267 269 272 274 276 278 281 282 284 285 287 289 289 290 290 292 293 293 294 295 296 298 299 300 302 303 304 304 305 305
251 253 254 256 257 258 260 261 263 265 266 267 267 268 268 270 271 273 276 278 280 282 284 286 288 289 290 290 291 291 292 293 294 295 295 296 298 299 300 302 302 303 304 305
252 254 256 258 259 260 261 262 264 265 266 267 267 268 270 271 271 273 276 278 279 282 284 285 287 288 288 290 292 291 291 295 296 295 294 295 297 298 299 299 301 302 302 303
253 256 259 260 261 262 263 264 264 265 266 267 268 269 271 271 270 272 274 276 280 282 283 283 285 286 287 288 289 290 292 295 296 295 295 296 297 298 299 300 300 301 302 301
256 259 261 264 265 264 264 264 263 263 264 266 267 269 270 270 270 271 274 276 278 279 281 284 285 286 286 287 288 290 292 294 294 295 296 298 299 299 298 298 298 300 301 301
Height
5882 5883 5884 5884 5884 5885 5885 5886 5887 5887 5886 5885 5883 5882 5881 5879 5878 5877 5876 5874 5872 5870 5868 5866 5864 5861 5859 5856 5854 5851 5849 5846 5844 5842 5839 5836 5834 5831 5829 5827 5824 5822 5819 5817
5876 5877 5878 5878 5879 5879 5880 5881 5881 5881 5881 5880 5878 5877 5876 5875 5874 5873 5871 5869 5867 5866 5864 5862 5860 5857 5855 5852 5850 5847 5845 5842 5840 5837 5834 5832 5829 5827 5824 5822 5820 5817 5815 5812
5871 5871 5872 5873 5874 5874 5875 5875 5876 5876 5876 5874 5874 5873 5872 5871 5870 5868 5867 5865 5863 5861 5859 5857 5855 5853 5850 5848 5845 5842 5840 5838 5835 5832 5829 5827 5824 5822 5820 5817 5815 5812 5810 5807
5866 5866 5867 5870 5868 5869 5869 5870 5870 5870 5870 5869 5869 5868 5867 5866 5865 5863 5862 5860 5859 5857 5855 5852 5850 5848 5845 5843 5840 5838 5835 5832 5830 5827 5824 5821 5819 5817 5814 5812 5809 5807 5804 5802
5859 5860 5861 5862 5862 5863 5864 5864 5864 5865 5864 5864 5863 5863 5861 5861 5860 5858 5857 5856 5854 5852 5850 5847 5845 5843 5840 5838 5835 5833 5830 5827 5825 5822 5819 5816 5813 5811 5809 5806 5804 5801 5799 5796
5852 5854 5855 5857 5856 5857 5859 5858 5859 5859 5859 5858 5858 5858 5857 5856 5854 5853 5852 5851 5849 5847 5845 5842 5840 5838 5835 5833 5830 5828 5825 5822 5819 5816 5813 5811 5808 5805 5803 5800 5798 5795 5793 5790
5845 5846 5848 5849 5850 5852 5854 5854 5853 5853 5853 5852 5852 5852 5851 5850 5849 5848 5847 5845 5843 5841 5839 5837 5834 5832 5830 5827 5825 5822 5819 5816 5813 5811 5808 5805 5802 5799 5797 5794 5792 5789 5787 5784
5838 5840 5843 5841 5843 5845 5846 5846 5846 5846 5847 5847 5846 5845 5844 5844 5843 5842 5841 5839 5837 5835 5833 5831 5829 5827 5824 5822 5819 5816 5813 5811 5808 5805 5802 5799 5796 5793 5790 5788 5785 5782 5780 5777
5831 5834 5833 5834 5835 5837 5838 5839 5839 5840 5840 5840 5840 5839 5838 5838 5837 5836 5834 5833 5831 5829 5827 5825 5823 5820 5818 5815 5812 5810 5807 5804 5801 5798 5796 5793 5790 5787 5784 5781 5778 5775 5772 5770
5822 5823 5825 5826 5827 5829 5830 5832 5832 5833 5833 5833 5833 5832 5832 5831 5830 5829 5827 5826 5824 5822 5820 5818 5816 5813 5811 5808 5805 5803 5800 5797 5794 5792 5789 5786 5783 5780 5777 5774 5771 5768 5765 5762
5813 5815 5817 5818 5820 5821 5823 5824 5825 5826 5826 5826 5826 5825 5824 5823 5822 5821 5820 5819 5817 5815 5813 5811 5809 5807 5804 5801 5798 5796 5794 5791 5788 5785 5783 5780 5777 5774 5771 5768 5764 5761 5758 5755
5805 5806 5808 5810 5812 5813 5815 5816 5817 5817 5818 5818 5817 5817 5817 5816 5814 5813 5812 5811 5809 5808 5806 5804 5801 5799 5797 5794 5792 5789 5787 5785 5782 5779 5776 5773 5770 5767 5764 5761 5758 5755 5751 5748
5795 5797 5800 5802 5804 5805 5807 5807 5808 5809 5809 5809 5809 5809 5809 5808 5807 5805 5804 5803 5801 5800 5798 5796 5794 5792 5789 5787 5785 5783 5781 5778 5775 5772 5769 5767 5764 5761 5758 5754 5751 5748 5744 5741
5787 5789 5791 5794 5796 5797 5798 5799 5800 5801 5801 5801 5801 5801 5800 5800 5799 5798 5797 5795 5793 5792 5790 5788 5786 5784 5782 5780 5778 5776 5773 5771 5768 5765 5762 5760 5757 5753 5750 5747 5744 5740 5737 5734
5778 5780 5783 5785 5787 5789 5790 5791 5792 5792 5793 5793 5793 5792 5792 5792 5791 5790 5788 5787 5785 5784 5782 5780 5778 5776 5774 5772 5770 5768 5766 5763 5761 5758 5755 5752 5749 5746 5743 5740 5736 5733 5730 5727
5769 5772 5774 5777 5778 5780 5781 5782 5783 5783 5784 5784 5784 5784 5783 5783 5782 5781 5780 5778 5777 5776 5774 5772 5770 5768 5766 5764 5763 5761 5759 5756 5753 5751 5748 5745 5741 5738 5735 5732 5729 5726 5723 5719
5761 5763 5766 5768 5770 5771 5773 5774 5774 5775 5775 5776 5776 5775 5775 5775 5774 5773 5772 5770 5769 5768 5766 5765 5763 5761 5759 5757 5755 5753 5751 5748 5746 5743 5740 5737 5734 5731 5727 5724 5721 5718 5715 5712
5753 5755 5757 5759 5761 5762 5764 5765 5765 5766 5766 5767 5767 5767 5767 5766 5766 5765 5764 5762 5761 5760 5758 5756 5755 5753 5752 5749 5747 5745 5743 5740 5738 5735 5732 5729 5726 5723 5720 5717 5714 5711 5708 5705
5744 5746 5748 5750 5752 5753 5755 5756 5756 5757 5757 5758 5758 5758 5758 5758 5757 5756 5755 5754 5753 5752 5750 5748 5747 5745 5743 5741 5739 5737 5735 5732 5729 5727 5724 5721 5718 5715 5712 5709 5706 5703 5700 5697
5736 5738 5740 5742 5744 5745 5746 5747 5747 5748 5748 5749 5749 5749 5749 5749 5748 5748 5747 5746 5745 5743 5742 5740 5738 5737 5735 5733 5731 5729 5727 5724 5721 5719 5717 5714 5711 5708 5705 5702 5698 5696 5693 5690
5728 5730 5732 5733 5735 5736 5737 5738 5739 5739 5739 5739 5740 5740 5740 5740 5740 5739 5739 5738 5737 5735 5734 5732 5730 5728 5726 5724 5723 5721 5718 5716 5714 5711 5709 5706 5703 5700 5698 5695 5692 5689 5686 5683
5721 5723 5724 5726 5727 5728 5729 5729 5730 5730 5731 5731 5731 5731 5732 5732 5732 5731 5730 5730 5728 5727 5725 5723 5722 5720 5718 5716 5715 5713 5710 5708 5706 5703 5701 5698 5696 5693 5690 5688 5685 5682 5678 5675
5714 5715 5716 5718 5719 5720 5720 5721 5722 5722 5722 5723 5723 5723 5723 5723 5723 5722 5722 5721 5720 5718 5717 5715 5714 5712 5710 5708 5707 5705 5702 5700 5698 5695 5693 5691 5688 5686 5683 5680 5678 5675 5671 5668
5707 5708 5709 5710 5711 5712 5713 5713 5714 5714 5714 5715 5715 5715 5715 5715 5715 5714 5714 5713 5712 5710 5709 5707 5706 5704 5702 5701 5699 5697 5695 5692 5690 5688 5686 5683 5681 5678 5676 5673 5670 5667 5664 5661
5700 5701 5702 5703 5703 5704 5705 5705 5705 5706 5706 5706 5706 5706 5706 5706 5706 5706 5705 5704 5703 5702 5701 5699 5698 5696 5694 5693 5691 5689 5687 5685 5682 5680 5678 5676 5673 5671 5668 5665 5663 5660 5657 5654
5693 5694 5695 5695 5696 5696 5697 5697 5697 5698 5698 5698 5698 5698 5698 5698 5697 5697 5697 5696 5695 5694 5693 5691 5690 5688 5686 5685 5683 5681 5679 5678 5675 5673 5671 5668 5666 5663 5660 5658 5655 5653 5650 5647
5686 5687 5688 5688 5688 5689 5689 5689 5690 5690 5690 5690 5690 5690 5690 5689 5689 5689 5688 5687 5687 5686 5685 5683 5682 5680 5679 5677 5676 5674 5672 5670 5668 5665 5663 5661 5658 5655 5653 5650 5647 5645 5642 5639